Winnipeg, Manitoba

5:23 AM CST on December 07, 2016 (GMT -0600)
Winnipeg International Airport

Weather History for CYWG - October, 2013

Change the Weather History Date:

Thursday, October 31, 2013

  Actual Average Record
Temperature  
Mean Temperature 34 °F -  
Max Temperature 44 °F 39 °F 64 °F (1999)
Min Temperature 24 °F 23 °F 12 °F (1996)
Degree Days  
Heating Degree Days 31    
Moisture  
Dew Point 28 °F    
Average Humidity 81    
Maximum Humidity 100    
Minimum Humidity 61    
Precipitation  
Precipitation 0.00 in - - ()
Sea Level Pressure  
Sea Level Pressure 29.53 in    
Wind  
Wind Speed 7 mph ()    
Max Wind Speed 12 mph    
Max Gust Speed -    
Visibility 15.0 miles    
Events      
Averages and records for this station are not official NWS values.
T = Trace of Precipitation, MM = Missing Value Source: Averaged Metar Reports

Daily Weather History Graph

Daily Weather History Graph

Search for Another Location

Airport or City:

Trip Planner

Search our weather history database for the weather conditions in past years. The results will help you decide how hot, cold, wet, or windy it might be!

Date:

Astronomy

Oct. 31, 2013 Rise Set
Actual Time 8:17 AM CDT 6:07 PM CDT
Civil Twilight 7:43 AM CDT 6:40 PM CDT
Nautical Twilight 7:05 AM CDT 7:18 PM CDT
Astronomical Twilight 6:27 AM CDT 7:56 PM CDT
Moon 4:51 AM CDT (10/31) 4:39 PM CDT (10/31)
Length of Visible Light 10h 57m
Length of Day
9h 49m
Waning Crescent, 10% of the Moon is Illuminated
Oct 31
Waning Crescent
Nov 3
New
Nov 9
First Quarter
Nov 17
Full
Nov 25
Last Quarter

Hourly Weather History & Observations

Time (CDT) Temp. Windchill Dew Point Humidity Pressure Visibility Wind Dir Wind Speed Gust Speed Precip Events Conditions
12:00 AM 35.6 °F 28.6 °F 28.4 °F 75% 29.65 in 15.0 mi SW 9.2 mph - N/A   Mostly Cloudy
1:00 AM 33.8 °F 25.3 °F 28.4 °F 81% 29.63 in 15.0 mi SW 11.5 mph - N/A   Scattered Clouds
2:00 AM 33.8 °F 25.8 °F 28.4 °F 81% 29.61 in 15.0 mi SSW 10.4 mph - N/A   Partly Cloudy
3:00 AM 33.8 °F 25.3 °F 28.4 °F 81% 29.59 in 15.0 mi SSW 11.5 mph - N/A   Scattered Clouds
4:00 AM 30.2 °F 22.6 °F 26.6 °F 86% 29.57 in 15.0 mi SW 8.1 mph - N/A   Scattered Clouds
5:00 AM 28.4 °F 21.2 °F 26.6 °F 93% 29.55 in 15.0 mi South 6.9 mph - N/A   Mostly Cloudy
6:00 AM 26.6 °F 19.1 °F 26.6 °F 100% 29.55 in 15.0 mi South 6.9 mph - N/A   Mostly Cloudy
7:00 AM 28.4 °F 22.2 °F 26.6 °F 93% 29.56 in 15.0 mi South 5.8 mph - N/A   Mostly Cloudy
8:00 AM 28.4 °F 23.3 °F 26.6 °F 93% 29.55 in 15.0 mi SSW 4.6 mph - N/A   Mostly Cloudy
9:00 AM 28.4 °F 23.3 °F 26.6 °F 93% 29.54 in 15.0 mi SW 4.6 mph - N/A   Mostly Cloudy
10:00 AM 30.2 °F 25.4 °F 28.4 °F 93% 29.54 in 15.0 mi West 4.6 mph - N/A   Mostly Cloudy
11:00 AM 35.6 °F 32.8 °F 30.2 °F 81% 29.52 in 15.0 mi NNW 3.5 mph - N/A   Overcast
12:00 PM 37.4 °F - 32.0 °F 81% 29.50 in 15.0 mi Variable 2.3 mph - N/A   Overcast
1:00 PM 39.2 °F 37.0 °F 30.2 °F 70% 29.51 in 15.0 mi West 3.5 mph - N/A   Overcast
2:00 PM 41.0 °F 39.0 °F 32.0 °F 70% 29.49 in 15.0 mi WNW 3.5 mph - N/A   Overcast
3:00 PM 44.6 °F 40.2 °F 32.0 °F 61% 29.47 in 15.0 mi WNW 8.1 mph - N/A   Overcast
4:00 PM 44.6 °F 40.7 °F 32.0 °F 61% 29.47 in 15.0 mi North 6.9 mph - N/A   Mostly Cloudy
5:00 PM 44.6 °F 40.2 °F 32.0 °F 61% 29.48 in 15.0 mi NNW 8.1 mph - N/A   Mostly Cloudy
6:00 PM 39.2 °F 35.0 °F 28.4 °F 65% 29.49 in 15.0 mi NNW 5.8 mph - N/A   Partly Cloudy
6:18 PM 35.6 °F 29.9 °F 28.4 °F 75% 29.48 in 15.0 mi NW 6.9 mph - N/A   Partly Cloudy
7:00 PM 28.4 °F 19.7 °F 23.0 °F 80% 29.49 in 15.0 mi NW 9.2 mph - N/A   Partly Cloudy
8:00 PM 26.6 °F 16.8 °F 23.0 °F 86% 29.49 in 15.0 mi NW 10.4 mph - N/A   Partly Cloudy
9:00 PM 24.8 °F 15.3 °F 21.2 °F 86% 29.49 in 15.0 mi WNW 9.2 mph - N/A   Clear
10:00 PM 26.6 °F 19.1 °F 23.0 °F 86% 29.49 in 15.0 mi WNW 6.9 mph - N/A   Clear
11:00 PM 24.8 °F 17.9 °F 23.0 °F 93% 29.50 in 15.0 mi West 5.8 mph - N/A   Clear